Volver al catálogo

STARLINK-30247

ActivoComunicacionesVLEO
NORAD 57644·PAYLOAD·🇺🇸 United States

Lanzado Aug 17, 2023 desde Cape Canaveral Space Force Station

Loading…

Próximos Pases (próximas 24 horas)

TLE

ActualizadoSource: CelesTrak SupGP

Época: Sep 14, 2026, 21:26 UTC

1 57644C 23122N   26257.89354167  .00009545  00000+0  34576-3 0  2578
2 57644  43.0005 103.7644 0001309 262.2523 178.2067 15.27568849    17

Sigue STARLINK-30247 en tiempo real con AllMySat

Download on the App Store